星链-1834 (STARLINK-1834 )

导读 | 星芒AI

STARLINK-1834 是 SpaceX Starlink 项目中的一颗低轨通信卫星,属于该星座的多个批次之一。该卫星于2021年发射,旨在为全球用户提供高速互联网服务。它运行在约550公里高的近地轨道,具备先进的相控阵天线和激光通信能力,以提升网络效率和连接稳定性。Starlink 卫星群致力于覆盖偏远地区,减少全球数字鸿沟。STARLINK-1834 在星座中发挥着关键作用,支持实时数据传输和全球宽带接入。

基本信息
目录编号:
46781
目录名称:
STARLINK-1834
国际标识:
2020-074AU
轨道中心:
EARTH
卫星名称:
星链-1834
卫星全名:
星链-1834 (STARLINK-1834 )
卫星状态:
已陨落 最后检测时间 2025-02-19
发射日期:
2020-10-24 UTC
国别 :
美国 (US)
星等 :
--
轨道信息
数据来源 国际轨道数据
星历时间: 2025-02-19T02:21:12+0800
轨道信息已过期300天
半长轴: 6551.457km
偏心率: 0.0008056
轨道倾角: 53.034°
近地点辐角 298.719°
升交点赤经 206.156°
平近点角 199.218°
近地点: 168.044km
远地点: 178.6km
周期: 87.956分钟
每日圈数: 16.371782
详细信息
固有亮度:
5
最大亮度:
2.5
卫星平台:
Starlink V1.0
覆盖范围:
全球
运营商:
太空探索技术公司
运营商所在国:
美国
制造商(研发单位):
太空探索技术公司
制造商所在国:
美国
使用方式:
暂无
卫星简介
星链(Starlink)计划是由太空探索技术公司(SpaceX)提出的一个巨型低轨卫星互联网星座项目,计划在2019年至2024年间在太空搭建由约1.2万颗卫星组成的“星链”网络,其中1584颗将部署在地球上空550千米处的近地轨道,并从2020年开始工作。该卫星仍在工作。